YU7IBS-1 Weather Reports


Display with metric or nautical units.
time (UTC)temp
F
wind
direction
speed
MPH
gust
MPH
rain 1hr
in
rain 24hr
in
rain mn
in
humidity
%
barometer
mb
20260507044245 61 0 0.0 0.0 0.00 0.00 0.00 95 997.3
20260507041249 62 0 0.0 0.0 0.00 0.00 0.00 91 997.3
20260507035743 63 0 0.0 0.0 0.00 0.00 0.00 89 997.3
20260507034244 64 0 0.0 0.0 0.00 0.00 0.00 77 996.4
20260507032744 64 0 0.0 0.0 0.00 0.00 0.00 79 996.7
20260507031244 64 0 0.0 0.0 0.00 0.00 0.00 77 996.3
20260507025744 64 0 0.0 0.0 0.00 0.00 0.00 81 996.7
20260507024244 64 0 0.0 0.0 0.00 0.00 0.00 79 996.3
20260507022744 64 0 0.0 0.0 0.00 0.00 0.00 83 996.7
20260507021244 64 0 0.0 0.0 0.00 0.00 0.00 81 996.3
20260507015744 64 0 0.0 0.0 0.00 0.00 0.00 86 996.6
20260507012744 63 0 0.0 0.0 0.00 0.00 0.00 90 995.8
20260507011244 63 0 0.0 0.0 0.00 0.00 0.00 88 995.3
20260507005744 63 0 0.0 0.0 0.00 0.00 0.00 92 995.7
20260507004244 63 0 0.0 0.0 0.00 0.00 0.00 89 995.3
20260507002744 63 0 0.0 0.0 0.00 0.00 0.00 92 995.7
20260507001244 63 0 0.0 0.0 0.00 0.00 0.00 88 995.3
20260506234243 63 0 0.0 0.0 0.00 0.00 0.00 88 995.3
20260506232745 63 0 0.0 0.0 0.00 0.00 0.00 92 995.7
20260506231244 63 0 0.0 0.0 0.00 0.00 0.00 88 995.3
20260506224243 64 0 0.0 0.0 0.00 0.00 0.00 86 995.3
20260506222743 64 0 0.0 0.0 0.00 0.00 0.00 89 995.7
20260506221243 64 0 0.0 0.0 0.00 0.00 0.00 83 995.3
20260506215744 65 0 0.0 0.0 0.00 0.00 0.00 84 995.7
20260506214244 66 0 0.0 0.0 0.00 0.00 0.00 76 995.1
20260506212743 67 0 0.0 0.0 0.00 0.00 0.00 72 994.8
20260506211244 68 0 0.0 0.0 0.00 0.00 0.00 62 994.3
20260506205744 68 0 0.0 0.0 0.00 0.00 0.00 58 994.7
20260506204243 69 0 0.0 0.0 0.00 0.00 0.00 50 993.5
20260506202743 68 0 0.0 0.0 0.00 0.00 0.00 52 993.7
20260506201243 69 0 0.0 0.0 0.00 0.00 0.00 53 993.5
20260506195743 69 0 0.0 0.0 0.00 0.00 0.00 52 993.5
20260506194244 69 0 0.0 0.0 0.00 0.00 0.00 52 993.5
20260506192743 69 0 0.0 0.0 0.00 0.00 0.00 49 993.5
20260506191243 69 0 0.0 0.0 0.00 0.00 0.00 50 993.5
20260506185743 69 0 0.0 0.0 0.00 0.00 0.00 47 993.5
20260506184244 70 0 0.0 0.0 0.00 0.00 0.00 49 993.5
20260506182743 70 0 0.0 0.0 0.00 0.00 0.00 47 993.5
20260506175743 71 0 0.0 0.0 0.00 0.00 0.00 46 993.5
20260506174244 72 0 0.0 0.0 0.00 0.00 0.00 48 993.4
20260506172744 73 0 0.0 0.0 0.00 0.00 0.00 45 993.3
20260506171243 74 0 0.0 0.0 0.00 0.00 0.00 46 993.4
20260506165743 75 0 0.0 0.0 0.00 0.00 0.00 42 993.5
20260506164243 76 0 0.0 0.0 0.00 0.00 0.00 43 993.5
20260506162742 77 0 0.0 0.0 0.00 0.00 0.00 40 993.5
20260506161243 77 0 0.0 0.0 0.00 0.00 0.00 42 993.5
20260506155743 77 0 0.0 0.0 0.00 0.00 0.00 38 993.5
20260506154243 78 0 0.0 0.0 0.00 0.00 0.00 41 993.5
20260506151244 79 0 0.0 0.0 0.00 0.00 0.00 40 993.5
20260506145743 79 0 0.0 0.0 0.00 0.00 0.00 37 993.7
20260506144243 79 0 0.0 0.0 0.00 0.00 0.00 41 993.9
20260506142743 79 0 0.0 0.0 0.00 0.00 0.00 38 994.0
20260506141242 79 0 0.0 0.0 0.00 0.00 0.00 39 994.3
20260506135743 78 0 0.0 0.0 0.00 0.00 0.00 38 994.5
20260506134243 79 0 0.0 0.0 0.00 0.00 0.00 40 994.5
20260506132742 79 0 0.0 0.0 0.00 0.00 0.00 37 994.5
20260506131243 79 0 0.0 0.0 0.00 0.00 0.00 39 994.5
20260506125744 78 0 0.0 0.0 0.00 0.00 0.00 38 994.9
20260506124243 79 0 0.0 0.0 0.00 0.00 0.00 40 995.3
20260506122744 79 0 0.0 0.0 0.00 0.00 0.00 37 995.5
20260506121242 78 0 0.0 0.0 0.00 0.00 0.00 40 995.5
20260506115743 78 0 0.0 0.0 0.00 0.00 0.00 38 995.5
20260506114243 78 0 0.0 0.0 0.00 0.00 0.00 40 995.5
20260506112743 77 0 0.0 0.0 0.00 0.00 0.00 37 995.9
20260506111243 78 0 0.0 0.0 0.00 0.00 0.00 37 996.0
20260506105743 78 0 0.0 0.0 0.00 0.00 0.00 36 996.0
20260506104244 77 0 0.0 0.0 0.00 0.00 0.00 37 996.4
20260506102743 78 0 0.0 0.0 0.00 0.00 0.00 36 996.7
20260506101243 78 0 0.0 0.0 0.00 0.00 0.00 36 996.3
20260506094242 77 0 0.0 0.0 0.00 0.00 0.00 36 996.3
20260506092743 77 0 0.0 0.0 0.00 0.00 0.00 37 996.7
20260506091243 76 0 0.0 0.0 0.00 0.00 0.00 37 996.5
20260506085743 76 0 0.0 0.0 0.00 0.00 0.00 38 996.8
20260506084243 75 0 0.0 0.0 0.00 0.00 0.00 38 997.0
20260506082743 74 0 0.0 0.0 0.00 0.00 0.00 37 997.0
20260506081243 73 0 1.0 1.0 0.00 0.00 0.00 37 997.0
20260506072743 69 0 2.0 4.0 0.00 0.00 0.00 39 997.6
20260506061243 65 0 2.0 3.0 0.00 0.00 0.00 48 997.3
20260506051243 64 0 1.0 2.0 0.00 0.00 0.00 57 997.3